BEIJING 1

Last updated on Sat Sep 05 2026 00:02:50 GMT+0000 (Coordinated Universal Time)

1 28890U 05043A 26247.73037568 .00000039 00000+0 17097-4 0 9998 2 28890 98.3025 21.4351 0015427 36.9431 323.2830 14.63572093112282
UTC large
Height (km)
Speed (km/s)
/
Latitude / Longitude
Inclination (degrees)
Orbital Period (minutes)
Azimuth
Elevation
Range (km)
Doppler Factor

Next 0 passes for location: London (51.5072 / 0.1276)

No passes found over London.
BEIJING 1